www.pogodaiklimat.ru

Погода и климат >> Архив погоды >> Турция >> Искендерун


ПОГОДА в Искендеруне

  • Прогноз погоды в Искендеруне
  • Монитор погоды в Искендеруне

АРХИВ ПОГОДЫ в Искендеруне

Время (UTC), дата Ветер
(напр.,м/с)
 
Видим.   Явления Облачность Т
(С)
Тd
(С)
f
(%)
Тe
(С)
Тes
(С)
Комфортность P
(гПа)
Po
(гПа)
Тmin
(С)
Tmax
(С)
R
(мм)
R24
(мм)
S
(см)
00 18.06 В 1
{7}
15 км 4/4 1050 м
[Cu hum]
+25.2 +20.6 76 +31 +31 очень
душно
1008.9 1008.5
03 18.06 В 1
{3}
15 км 5/5 1050 м
[Cu med, cong]
+25.0 +20.8 78 +31 +32 очень
душно
1009.2 1008.8
06 18.06 З 5
{7}
10 км гроза, ливневой дождь 9/5 750 м
[Cb cap Ac As]
+25.5 +22.2 82 +33 +34 очень
душно
1009.7 1009.3 +24.9 0.5
07 18.06 СЗ 3 10 км гроза, ливневой дождь 5/5 600 м
[Cb cap]
+25.5 +21.8 80 +33 +39 очень
душно
1010.2 1009.8
08 18.06 З 3 15 км в посл. час гроза 9/5 1000 м
[Cu med, cong Ac As]
+26.4 +21.8 76 +34 +38 очень
душно
1010.4 1010.0
09 18.06 З 4
{6}
15 км {гроза} 4/4 1050 м
[Cu med, cong]
+28.4 +21.7 67 +36 +46 очень
душно
1010.6 1010.2
10 18.06 З 4 15 км 4/4 1000 м
[Cu med, cong]
+28.5 +21.9 67 +37 +46 очень
душно
1010.1 1009.7
11 18.06 З 4 15 км 3/3 1000 м
[Cu hum]
+28.9 +22.3 68 +38 +48 очень
душно
1010.2 1009.8
12 18.06 З 5
{8}
15 км {гроза} 3/3 1050 м
[Cu hum]
+28.5 +22.0 68 +37 +42 очень
душно
1010.6 1010.2
13 18.06 З 8 15 км 3/3 1000 м
[Cu hum]
+28.0 +22.0 70 +36 +38 очень
душно
1010.1 1009.7
14 18.06 ЮЗ 5 15 км 3/3 1000 м
[Cu hum]
+27.7 +21.7 70 +36 +38 очень
душно
1009.9 1009.5
15 18.06 З 4
{11}
15 км 3/3 1050 м
[Cu hum]
+27.5 +21.7 71 +35 +37 очень
душно
1009.8 1009.4 310
16 18.06 З 3 15 км 4/4 1000 м
[Cu med, cong]
+27.1 +21.7 72 +35 +35 очень
душно
1010.0 1009.6
17 18.06 ЮЗ 3 15 км 4/4 1000 м
[Cu med, cong]
+26.2 +21.4 75 +33 +33 очень
душно
1010.2 1009.8
18 18.06 ЮЗ 3
{11}
15 км 4/4 1050 м
[Cu med, cong]
+26.1 +21.0 74 +33 +33 очень
душно
1010.2 1009.8 +29.2
06 19.06 З 1
{8}
20 км {гроза, морось} 4/4 1050 м
[Cu med, cong]
+27.8 +21.3 68 +35 +42 очень
душно
1009.3 1008.9 +21.7 8
07 19.06 З 2 20 км 4/4 1000 м
[Cu med, cong]
+28.0 +19.7 61 +34 +44 очень
душно
1009.4 1009.0
08 19.06 СЗ 1 20 км 4/4 1000 м
[Cu med, cong]
+28.3 +19.3 58 +34 +47 очень
душно
1009.5 1009.1
09 19.06 СЗ 1
{3}
20 км 4/4 1050 м
[Cu med, cong]
+28.5 +19.9 60 +35 +49 очень
душно
1009.5 1009.1
10 19.06 З 2 20 км 4/4 1000 м
[Cu med, cong]
+28.9 +20.2 59 +35 +49 очень
душно
1009.4 1009.0
11 19.06 З 2 20 км 4/4 1000 м
[Cu med, cong]
+29.5 +21.4 62 +37 +49 очень
душно
1009.3 1008.9
12 19.06 З 3
{4}
20 км 4/4 1050 м
[Cu med, cong]
+29.1 +21.6 64 +37 +45 очень
душно
1008.8 1008.4
13 19.06 З 3 20 км 4/4 1000 м
[Cu med, cong]
+28.7 +22.2 68 +37 +43 очень
душно
1008.8 1008.4
14 19.06 З 3 20 км 4/4 1000 м
[Cu med, cong]
+28.6 +21.7 66 +37 +40 очень
душно
1008.5 1008.1
15 19.06 З 3
{6}
20 км 4/4 1050 м
[Cu med, cong]
+28.0 +21.3 67 +35 +37 очень
душно
1008.6 1008.2
16 19.06 З 2 20 км 5/5 1000 м
[Cu med, cong]
+26.9 +21.1 71 +34 +34 очень
душно
1008.8 1008.4
17 19.06 З 3 20 км 6/6 1000 м
[Cu med, cong]
+26.5 +21.4 74 +34 +34 очень
душно
1008.7 1008.3
18 19.06 З 4
{6}
20 км 6/6 1050 м
[Cu med, cong]
+26.2 +21.7 76 +34 +34 очень
душно
1008.9 1008.5 +29.5
06 20.06 З 1
{8}
15 км 8/4 1050 м
[Cu med, cong Ac trans]
+27.9 +18.7 57 +33 +37 очень
душно
1007.6 1007.2 +24.8
07 20.06 СВ 1 10 км гроза без осадков 9/5 600 м
[Cb cap Ac As]
+26.5 +19.1 64 +32 +36 очень
душно
1007.6 1007.2
08 20.06 ЮЗ 3 10 км гроза, ливневой дождь 9/5 600 м
[Cb cap Ac As]
+23.8 +20.3 81 +29 +33 душно 1008.1 1007.7
09 20.06 В 1
{9}
20 км в посл. час гроза 3/3 1050 м
[Cu hum]
+26.7 +20.7 70 +33 +50 очень
душно
1008.4 1008.0
10 20.06 СЗ 2 20 км 3/3 1000 м
[Cu hum]
+28.5 +18.4 54 +33 +48 очень
душно
1007.9 1007.5
11 20.06 СЗ 2 20 км 4/4 1000 м
[Cu med, cong]
+28.3 +19.5 59 +34 +46 очень
душно
1007.4 1007.0
12 20.06 С 2
{9}
15 км {гроза} 9/5 1050 м
[Cu med, cong Ac As]
+27.6 +19.3 61 +33 +37 очень
душно
1007.8 1007.4 0.4
13 20.06 З 4 15 км 9/5 1000 м
[Cu med, cong Ac As]
+27.0 +22.0 74 +35 +37 очень
душно
1007.9 1007.5
14 20.06 З 5 15 км 9/4 1000 м
[Cu med, cong Ac trans]
+26.6 +21.9 75 +34 +35 очень
душно
1007.8 1007.4
15 20.06 З 5
{8}
15 км 9/4 1050 м
[Cu med, cong Ac trans]
+26.7 +22.2 76 +35 +35 очень
душно
1008.0 1007.6 270
16 20.06 С 1 10 км слаб. ливневой дождь 9/5 600 м
[Cu med, cong Ac As]
+24.5 +20.6 79 +30 +31 очень
душно
1008.0 1007.6
17 20.06 С 1 10 км слаб. ливневой дождь 9/5 600 м
[Cu med, cong Ac As]
+24.7 +20.4 77 +31 +31 очень
душно
1007.8 1007.4
18 20.06 С 1
{10}
15 км в посл. час ливневой дождь 4/4 1050 м
[Cu med, cong]
+24.9 +20.2 75 +31 +31 очень
душно
1008.0 1007.6 +29.1 0.6
06 21.06 З 1
{7}
20 км {ливн. осадки} 4/4 1050 м
[Cu hum]
+27.1 +21.0 69 +34 +41 очень
душно
1008.5 1008.1 +21.2 9
07 21.06 З 2 20 км 4/4 1000 м
[Cu hum]
+27.6 +21.3 69 +35 +44 очень
душно
1008.7 1008.3
08 21.06 З 3 20 км 4/4 1000 м
[Cu med, cong]
+28.1 +21.7 68 +36 +46 очень
душно
1008.7 1008.3
09 21.06 З 3
{4}
20 км 4/4 1050 м
[Cu med, cong]
+28.2 +21.8 68 +36 +47 очень
душно
1008.8 1008.4
10 21.06 З 4 20 км 4/4 1000 м
[Cu med, cong]
+27.9 +22.8 74 +37 +45 очень
душно
1008.9 1008.5
11 21.06 З 5 20 км 5/5 1000 м
[Cu med, cong]
+28.5 +22.9 72 +38 +43 очень
душно
1008.9 1008.5
12 21.06 З 5
{8}
20 км 4/4 1050 м
[Cu med, cong]
+28.1 +22.8 73 +37 +42 очень
душно
1008.6 1008.2
13 21.06 З 4 20 км 4/4 1000 м
[Cu med, cong]
+28.4 +22.7 71 +38 +42 очень
душно
1008.4 1008.0
14 21.06 З 4 20 км 4/4 1000 м
[Cu med, cong]
+28.2 +22.0 69 +36 +39 очень
душно
1008.3 1007.9
15 21.06 З 5
{8}
20 км 4/4 1050 м
[Cu med, cong]
+27.5 +22.2 73 +36 +37 очень
душно
1008.0 1007.6
16 21.06 ЮЗ 3 15 км 6/4 1000 м
[Cu med, cong Ac trans]
+27.3 +22.0 73 +35 +36 очень
душно
1008.2 1007.8
17 21.06 З 2 15 км 6/4 1000 м
[Cu med, cong Ac trans]
+26.5 +21.8 75 +34 +34 очень
душно
1008.4 1008.0
18 21.06 штиль 0
{8}
15 км 6/4 1050 м
[Cu med, cong Ac trans]
+26.3 +21.4 74 +33 +33 очень
душно
1008.5 1008.1 +28.7
06 22.06 ЮЗ 2
{4}
15 км 9/4 1050 м
[Cu med, cong Ac trans]
+26.1 +21.9 78 +34 +37 очень
душно
1009.3 1008.9 +25.2
07 22.06 ЮЗ 2 15 км 9/4 1000 м
[Cu med, cong Ac trans]
+27.0 +22.3 75 +35 +39 очень
душно
1009.5 1009.1
08 22.06 ЮЗ 4 15 км 9/4 1000 м
[Cu med, cong Ac trans]
+26.5 +21.6 74 +34 +38 очень
душно
1009.8 1009.4
09 22.06 З 4
{6}
15 км 9/4 1050 м
[Cu med, cong Ac trans]
+28.1 +21.9 69 +36 +41 очень
душно
1009.7 1009.3
10 22.06 З 4 15 км 9/0
[Ac trans]
+27.6 +21.8 71 +36 +42 очень
душно
1009.6 1009.2
11 22.06 З 5 15 км 9/0
[Ac trans]
+27.7 +22.0 71 +36 +41 очень
душно
1009.8 1009.4
12 22.06 З 4
{7}
15 км 3/3 1050 м
[Cu hum]
+28.3 +21.7 67 +36 +43 очень
душно
1009.8 1009.4
13 22.06 З 4 15 км 3/3 1000 м
[Cu hum]
+28.5 +21.8 67 +37 +42 очень
душно
1009.3 1008.9
14 22.06 З 4 15 км 3/3 1000 м
[Cu hum]
+28.0 +22.1 70 +36 +40 очень
душно
1008.9 1008.5
15 22.06 З 3
{6}
15 км 5/5 1050 м
[Cu med, cong]
+27.7 +22.4 73 +36 +38 очень
душно
1009.2 1008.8
16 22.06 З 2 15 км 9/4 1000 м
[Cu med, cong Ac trans]
+26.8 +22.0 75 +35 +35 очень
душно
1009.5 1009.1
17 22.06 ЮЗ 1 15 км ясно +26.3 +21.6 75 +34 +34 очень
душно
1009.0 1008.6
18 22.06 З 3
{6}
15 км 9/4 1050 м
[Cu med, cong Ac trans]
+26.3 +21.6 75 +34 +34 очень
душно
1009.6 1009.2 +28.6
06 23.06 З 2
{2}
20 км 3/3 1050 м
[Cu med, cong]
+27.7 +20.8 66 +35 +42 очень
душно
1010.0 1009.6 +24.8
07 23.06 З 2 20 км 3/3 1000 м
[Cu med, cong]
+28.2 +21.9 69 +36 +47 очень
душно
1010.1 1009.7
08 23.06 З 2 20 км 3/3 1000 м
[Cu med, cong]
+28.2 +22.2 70 +37 +51 опасность
солнечного
удара
1010.1 1009.7
09 23.06 З 2
{3}
20 км 3/3 1050 м
[Cu med, cong]
+28.8 +21.4 64 +36 +51 опасность
солнечного
удара
1010.5 1010.1 271
10 23.06 З 3 20 км 4/4 1000 м
[Cu med, cong]
+29.4 +23.9 72 +40 +51 опасность
солнечного
удара
1010.4 1010.0
11 23.06 З 3 20 км 4/4 1000 м
[Cu med, cong]
+29.5 +23.6 71 +40 +50 очень
душно
1010.1 1009.7
12 23.06 З 4
{5}
20 км 4/4 1050 м
[Cu med, cong]
+29.5 +24.2 73 +41 +48 опасность
перегрева
1010.0 1009.6
13 23.06 З 3 20 км 3/3 1000 м
[Cu hum]
+29.3 +23.8 72 +40 +46 очень
душно
1009.7 1009.3
14 23.06 З 3 20 км 3/3 1000 м
[Cu med, cong]
+29.0 +23.3 71 +39 +43 очень
душно
1009.5 1009.1
15 23.06 З 3
{5}
20 км ясно +28.4 +23.4 74 +38 +41 очень
душно
1009.5 1009.1
16 23.06 З 2 20 км 4/4 1000 м
[Cu med, cong]
+27.9 +23.2 76 +38 +38 очень
душно
1009.7 1009.3
17 23.06 З 3 20 км 3/3 1000 м
[Cu hum]
+27.0 +23.4 81 +37 +37 очень
душно
1009.6 1009.2
18 23.06 ЮЗ 1
{5}
20 км 3/3 1050 м
[Cu hum]
+27.0 +22.7 77 +36 +36 очень
душно
1010.0 1009.6 +29.8
06 24.06 З 2
{3}
15 км 4/4 1050 м
[Cu med, cong]
+27.4 +24.0 82 +38 +45 очень
душно
1010.2 1009.8 +25.7
07 24.06 З 2 15 км 3/3 1000 м
[Cu hum]
+28.2 +23.8 77 +39 +50 очень
душно
1009.9 1009.5
08 24.06 СЗ 2 15 км 3/3 1000 м
[Cu hum]
+28.8 +24.0 75 +40 +54 опасность
солнечного
удара
1010.0 1009.6
09 24.06 З 2
{3}
15 км 3/3 1050 м
[Cu hum]
+29.6 +24.1 72 +41 +57 опасность
перегрева
1009.9 1009.5
10 24.06 З 3 15 км 3/3 1000 м
[Cu hum]
+29.5 +24.5 75 +42 +55 опасность
перегрева
1009.7 1009.3
11 24.06 З 3 15 км 3/3 1000 м
[Cu hum]
+29.7 +24.0 72 +41 +53 опасность
перегрева
1009.3 1008.9
12 24.06 З 3
{4}
15 км 3/3 1050 м
[Cu hum]
+30.6 +24.2 69 +43 +52 опасность
перегрева
1009.1 1008.7
13 24.06 З 3 15 км ясно +30.3 +24.2 70 +42 +52 опасность
перегрева
1008.7 1008.3
14 24.06 З 3 15 км ясно +29.9 +24.1 71 +41 +47 опасность
перегрева
1008.5 1008.1
15 24.06 З 3
{4}
15 км ясно +29.3 +23.9 73 +41 +43 опасность
перегрева
1008.4 1008.0
16 24.06 З 2 15 км ясно +28.8 +23.9 75 +40 +40 очень
душно
1008.7 1008.3
17 24.06 ЮЗ 1 15 км ясно +28.0 +23.0 74 +37 +37 очень
душно
1008.9 1008.5
18 24.06 З 2
{4}
15 км ясно +27.8 +23.2 76 +37 +37 очень
душно
1009.2 1008.8 +30.7

 

Местоположение метеостанции Искендерун (Турция): широта 36.58 долгота 36.17 высота над уровнем моря 4 м.

В архиве по умолчанию представлена погода в Искендеруне за последнюю неделю. Архивные данные за месяц целиком и за предыдущие месяцы, начиная с января 2011 года, Вы можете получить, выбрав интересующий диапазон дат из раскрывающегося списка и нажав кнопку "Ввод!".


*Определитесь, кто Вы:
робот инопланетянин человек

Внимание! Время в таблицах - всемирное. Для получения местного времени необходимо прибавить поправку, которая равна 2 ч.

Смотрите также архив погоды в соседних городах и на ближайших метеорологических станциях:

Погода в Османие (Турция) (58 км)
Погода в Инджирлике (Турция) (81 км)
Погода в Килисе (Турция) (85 км)
Погода в Адане (Турция) (89 км)
Погода в Алеппо (Сирия) (102 км)
Погода в Газиантепе (Турция) (118 км)
Погода в Газиантепе (Турция) (120 км)
Погода в Латакии (Сирия) (122 км)
Погода в Кахраманмараше (Турция) (132 км)
Погода в Аэропорту Басиля Эль-Асада (Сирия) (133 км)

Пояснения к столбцам:

Ветер - указаны скорость ветра в м/с - средняя за 10 мин, порывы в срок и между сроками (в фигурных скобках) и направление, откуда дует ветер: С - северный, СВ - северо-восточный, В - восточный, ЮВ - юго-восточный, Ю - южный, ЮЗ - юго-западный, З - западный, СЗ - северо-западный.
Видимость - горизонтальная дальность видимости в метрах или километрах. При видимости от 1 до 10 км при отсутствии осадков обычно наблюдается дымка, при ухудшении видимости до 1 км и менее - туман. В сухую погоду видимость может ухудшаться дымом, пылью или мглою.
Явления - указаны атмосферные явления, наблюдавшиеся в срок или в последний час перед сроком; фигурными скобками обозначены явления, наблюдавшиеся между сроками (за 1-3 часа до срока); квадратными скобками обозначены град или гололедные отложения с указанием их диаметра в мм.
Облачность - указаны через наклонную черту общая и нижняя облачность в баллах и высота нижней границы облаков в метрах; квадратными скобками обозначены формы облаков: Ci - перистые, Cs - перисто-слоистые, Cc - перисто-кучевые, Ac - высококучевые, As - высокослоистые, Sc - слоисто-кучевые, Ns - слоисто-дождевые, Cu - кучевые, Cb - кучево-дождевые. Подробнее классификацию облаков см. в Атласе облаков (PDF).
T - Температура воздуха - температура, измеренная на высоте 2 м над землей.
Td - Температура точки росы - температура, при понижении до которой содержащийся в воздухе водяной пар достигнет насыщения.
f - Относительная влажность воздуха - влажноcть воздуха, измеренная на высоте 2 м над землей.
Te - Эффективная температура - температура, которую ощущает одетый по сезону человек в тени. Характеристика душности погоды. При расчете учитывается влияние влажности воздуха и скорости ветра на теплоощущения человека.
Tes - Эффективная температура на солнце - температура, которую ощущает человек, с поправкой на солнечный нагрев. Характеристика знойности погоды. Зависит от высоты солнца над горизонтом, облачности и скорости ветра. Ночью, в пасмурную погоду, а также при ветре 12 м/с и более поправка равна нулю.
P - Атмосферное давление - приведенное к уровню моря атмосферное давление.
Po - Атмосферное давление - измеренное на уровне метеостанции атмосферное давление.
Tmin - Минимальная температура - минимум температуры воздуха на высоте 2 м над землей.
Tmax - Максимальная температура - максимум температуры воздуха на высоте 2 м над землей.
R - Количество осадков - Количество выпавших осадков за период времени, мм. При наведении курсора мыши на число - период времени, за который выпало указанное количество осадков.
R24 - Количество осадков - Количество выпавших осадков за 24 часа, мм.
S - Снежный покров - Высота снежного покрова, см. При наведении курсора мыши на число - состояние снежного покрова и степень покрытия местности в баллах.